STARLINK-3100, 49144

Orbit data source: Space-Track

STARLINK-3100, 49144 is a payload satellite owned by SpaceX/Seattle (US) in LEO that was launched on Tue, 14 Sep 2021 UTC via an FALCON 9 launch vehicle from the Air Force Western Test Range (AFWTR). Payload-class satellites include a variety of spacecraft equipped with specific instruments for various scientific and technological missions. These include communications satellites like Starlink; space stations such as the ISS; scientific satellites like the Hubble; Earth observation satellites from companies like Planet Labs, Umbra, and HawkEye 360; GPS; miniature CubeSats for education and research; and military/defense satellites.

Loading next visibility...
Identifier
49144, 2021-082Q
Orbit
LEO
Country
Flag of USUS
Related business
Manufacturer
SpaceX/Seattle
Mission
Operational Commercial Communications
Bus & Motor
STARLINK, Unknown motor
Mass
297 kg wet, ~275 kg dry
Launch date (UTC)
2021-09-14 (5 years ago)
Launch vehicle
FALCON 9
Launch site
Air Force Western Test Range (AFWTR)
Object type
Payload
Rocket body
Debris
Shape & HBR
Box + 1 Pan, 10.1 m
Radar Cross Section
13.562 m², Large (>1 m²)

Expand to show TLE details & history
Last TLE update: 2 days ago

TLE from 2 days ago
0 STARLINK-3100
1 49144U 21082Q   26171.04447495  .00000339  00000-0  36184-4 0  9990
2 49144  69.9998  36.3751 0003049 269.0201  91.0609 14.98332288261311
Epoch: 2026-06-20T01:04Z
TLE epoch observation values (Epoch: 2026-06-20T01:04:02.635Z)
Latitude
-0.00001°
Longitude
112.09937°
Altitude
574.513 km
Speed
7.574 km/s
True Right ascension
02h 25m 30s
True Declination
0° 00' 00"
Sunlit
Object was in daylight at epoch
Visualization orbit readout
Latitude
Unknown
Longitude
Unknown
Altitude
Unknown
Speed
Unknown
Apparent Right ascension
Unknown
Apparent Declination
Unknown
Sunlit
N/A
Visualization observer readout
Local Sidereal Time
21:42:27
Azimuth
Unknown
Elevation
Unknown
Doppler factor
Unknown
Orbital elements
Apogee altitude
572.116 km
Perigee altitude
567.879 km
Semi-major axis
6,948.134 km
Eccentricity
0.0003
Inclination
69.9998°
RAAN
36.3751°
Arg. of periapsis
269.0201°
True anomaly
91.09583°
Mean anomaly
91.0609°
Eccentric anomaly
91.07837°
Mean motion
3.74749 °/min
Orbital period
96.06 mins
BSTAR
0.000036184
Loading maneuver chart data...
Computing Atmospheric mass density...

Documentation

Showing up to 5 results
|